Location: 相模原市立博物館
(35.5593°N, 139.3931°E)
Time: 15:27:14
(UTC+09:00)

STRAND 1 - Visible Passes

Search period start: 28 January 2022 00:00
Search period end: 07 February 2022 00:00
Orbit: 768 x 780 km, 98.4° (Epoch: 27 January)

Date Brightness Start Highest point End Pass type
(mag) Time Alt. Az. Time Alt. Az. Time Alt. Az.
28 Jan ? 04:57:07 10° ESE 05:00:42 20° ENE 05:04:19 10° NNE visible
28 Jan ? 18:47:38 10° NNE 18:52:49 83° ESE 18:57:58 10° SSW visible
28 Jan ? 20:30:11 10° NW 20:31:13 11° WNW 20:32:16 10° WNW visible
29 Jan ? 06:00:16 10° SSE 06:05:22 85° ENE 06:10:30 10° NNW visible
29 Jan ? 18:13:51 10° NNE 18:18:38 37° E 18:23:22 10° SSE visible
29 Jan ? 19:53:34 10° NNW 19:57:32 23° WNW 20:01:29 10° WSW visible
30 Jan ? 05:26:41 10° SE 05:31:22 38° ENE 05:36:05 10° N visible
30 Jan ? 17:40:58 10° NE 17:44:16 17° E 17:47:34 10° SE visible
30 Jan ? 19:18:43 10° N 19:23:40 48° WNW 19:28:35 10° SW visible
31 Jan ? 04:54:07 10° ESE 04:57:33 18° ENE 05:00:59 10° NNE visible
31 Jan ? 18:44:26 10° NNE 18:49:37 78° ESE 18:54:46 10° S visible
31 Jan ? 20:26:27 10° NW 20:28:04 11° WNW 20:29:42 10° W visible
01 Feb ? 05:57:04 10° SSE 06:02:10 79° ENE 06:07:18 10° N visible
01 Feb ? 18:10:43 10° NNE 18:15:25 35° E 18:20:05 10° SSE visible
01 Feb ? 19:50:17 10° NNW 19:54:22 24° WNW 19:58:27 10° WSW visible
02 Feb ? 05:23:34 10° SE 05:28:11 36° ENE 05:32:50 10° N visible
02 Feb ? 17:37:59 10° NE 17:41:03 16° E 17:44:07 10° SE visible
02 Feb ? 19:15:29 10° N 19:20:28 52° WNW 19:25:27 10° SSW visible
03 Feb ? 04:51:07 10° ESE 04:54:23 17° ENE 04:57:39 10° NNE visible
03 Feb ? 18:41:15 10° NNE 18:46:25 73° ESE 18:51:33 10° S visible
03 Feb ? 20:22:53 10° NW 20:24:55 12° WNW 20:26:57 10° W visible
04 Feb ? 05:53:53 10° SSE 05:58:58 74° ENE 06:04:05 10° N visible
04 Feb ? 18:07:35 10° NE 18:12:12 32° E 18:16:47 10° SSE visible
04 Feb ? 19:46:59 10° NNW 19:51:11 26° WNW 19:55:24 10° WSW visible
05 Feb ? 05:20:27 10° SE 05:25:00 34° ENE 05:29:35 10° N visible
05 Feb ? 19:12:15 10° N 19:17:17 55° WNW 19:22:18 10° SSW visible
06 Feb ? 04:48:09 10° ESE 04:51:12 16° ENE 04:54:17 10° NNE visible
06 Feb ? 18:38:04 10° NNE 18:43:13 67° ESE 18:48:20 10° S visible
06 Feb ? 20:19:23 10° NW 20:21:46 13° WNW 20:24:08 10° W visible
